Погода в Пушкино

Россия / Московская область     56°00′40″N   37°50′49″E
темп.,
°C
ветер,
м/с
пор.,
м/с
влажн.,
%
обл.,
%
осадки,
мм/ч
давл.,
гПа
погр.,
м
29 июня, ср
ср2900:00+12всв23740 0.0 102361
03:00+10всв23710 0.0 102460
06:00+12всв23620 0.0 1024131
09:00+18св33410 0.0 10231006
12:00+21всв33310 0.0 10221675
15:00+23св22280 0.0 10212079
18:00+22ссв32320 0.0 10201875
21:00+15всв35630 0.0 102093
30 июня, чт
чт3000:00+12всв12695 0.0 102122
03:00+11ссв1168100 0.0 102113
06:00+14с23645 0.0 1020112
09:00+19с344862 0.0 1020821
12:00+23с453218 0.0 10191804
15:00+23с5631100 0.0 10181944
18:00+22с46392 0.0 10181653
21:00+16с37640 0.0 1019162
1 июля, пт
пт100:00+14с37720 0.0 1019115
03:00+13с36800 0.0 1020123
06:00+15с36748 0.0 1020162
09:00+21ссв35495 0.0 1020881
12:00+24ссв57321 0.0 10202016
15:00+25ссв463050 0.0 10202143
18:00+24ссв35355 0.0 10201900
21:00+16вюв23621 0.0 102150
2 июля, сб
сб200:00+14ююв11655 0.0 102115
03:00+14з226620 0.0 102120
06:00+15з25665 0.0 1021154
09:00+20сз2460100 0.1 1020385
12:00+27сз364310 0.2 10181273
15:00+29ссз693799 0.2 10163138
18:00+28с410444 0.0 10152442
21:00+20с38731 0.0 1016189
3 июля, вс
вс300:00+19с267875 0.0 1017146
03:00+17ссв22835 0.0 101736
06:00+18с24755 0.0 1017136
09:00+24св23500 0.0 1017702
12:00+28с35360 0.0 10172418
15:00+29с44331 0.0 10172656
18:00+28ссв3338100 0.0 10161505
21:00+21всв226552 0.0 101829